If you wish to contribute or participate in the discussions about articles you are invited to join SKYbrary as a registered user

 Actions

LA/Ontario Airport

From SKYbrary Wiki

KONT
Airport
ICAO: KONT
Summary
Name LA/Ontario Airport
Region North America
Territory United States US.gif
Location Ontario, California
Serving
Coordinates 34° 3' 39.08" N, 117° 35' 53.80" W
Runways
Designator Length Width Surface ROPS
08L/26R 3718 m12,198.163 ft
46 m150.919 ft
PEM yes/yes
08R/26L 3109 m10,200.131 ft
46 m150.919 ft
CON yes/yes


METAR
Observation KONT 250253Z 26006KT 10SM CLR 26/10 A2988 RMK AO2 SLP103 FU DSNT NW-N T02560100 53008
Station Ontario, Ontario International Airport
Date/Time 25 September 2020 02:53:00
Wind direction 260°
Wind speed 06 kts
Lowest cloud amount n/a
Temperature 25.6°C
Dew point 10°C
Humidity 37%
QNH hPa
Weather condition n/a

BS
Tag(s) Bird Strike
WX
Tag(s) Fog

Ontario International Airport

ICAO: KONT IATA: ONT

Description

International airport 20 nm east of the city of Los Angeles.

Climatology

Mediterranean climate or Dry-Summer Subtropical (Köppen climate classification Csa) - Summers are warm to hot and dry. Winters are mild and somewhat rainy. Spring and autumn bring mild days with cool evenings and are generally dry.

Maps

Terrain

Loading map...

Airport Layout

Loading map...



Accidents & Serious Incidents at or in vicinity of KONT

None on SKYbrary